Location: Hilton Head Island
(32.2163°N, 80.7526°W)
Time: 12:44:28
(UTC-05:00)

Vanguard 2 - Pass Details

Date: 21 February 2026
Orbit: 553 x 2896 km, 32.9° (Epoch: 6 March)

Event Time Altitude Azimuth Distance (km) Brightness Sun altitude
Exits shadow 04:04:05 38° 120° (ESE) 1,523 9.2 -37.6°
Drops below altitude 10° 04:07:49 10° 88° (E) 2,461 10.8 -36.9°
Sets 04:09:56 0° 81° (E) 3,203 11.7 -36.4°
